Change the Weather History Date:

Friday, September 27, 2013

  Actual Average (KHAI) Record (KHAI)
Temperature  
Mean Temperature 61 °F -  
Max Temperature 78 °F 71 °F 86 °F (1954)
Min Temperature 44 °F 46 °F 29 °F (1957)
Degree Days  
Heating Degree Days 4    
Growing Degree Days 11 (Base 50)    
Moisture  
Dew Point 49 °F    
Average Humidity 64    
Maximum Humidity 100    
Minimum Humidity 36    
Precipitation  
Precipitation 0.00 in - - ()
Sea Level Pressure  
Sea Level Pressure 30.17 in    
Wind  
Wind Speed 5 mph (ESE)    
Max Wind Speed 12 mph    
Max Gust Speed 17 mph    
Visibility 10 miles    
Events      
Averages and records for this station are not official NWS values.
T = Trace of Precipitation, MM = Missing Value Source: NWS Daily Summary

Daily Weather History Graph

Daily Weather History Graph

Search for Another Location

Airport or City:

Trip Planner

Search our weather history database for the weather conditions in past years. The results will help you decide how hot, cold, wet, or windy it might be!

Date:

Astronomy

Sep. 27, 2013 Rise Set
Actual Time 7:34 AM EDT 7:29 PM EDT
Civil Twilight 7:06 AM EDT 7:57 PM EDT
Nautical Twilight 6:34 AM EDT 8:29 PM EDT
Astronomical Twilight 6:01 AM EDT 9:02 PM EDT
Moon 12:24 AM EDT (9/27) 3:12 PM EDT (9/27)
Length of Visible Light 12h 50m
Length of Day
11h 55m
Last Quarter, 45% of the Moon is Illuminated
Sep 27
Last Quarter
Oct 4
New
Oct 11
First Quarter
Oct 18
Full
Oct 26
Last Quarter

Hourly Weather History & Observations

Time (EDT) Temp. Dew Point Humidity Pressure Visibility Wind Dir Wind Speed Gust Speed Precip Events Conditions
12:14 AM 57.2 °F 44.6 °F 63% 30.12 in 10.0 mi SE 3.5 mph - N/A   Clear
12:35 AM 55.4 °F 44.6 °F 67% 30.12 in 10.0 mi ESE 5.8 mph - N/A   Clear
12:55 AM 55.4 °F 44.6 °F 67% 30.13 in 10.0 mi ESE 3.5 mph - N/A   Clear
1:14 AM 55.4 °F 44.6 °F 67% 30.14 in 10.0 mi SE 3.5 mph - N/A   Clear
1:35 AM 53.6 °F 44.6 °F 72% 30.13 in 10.0 mi ESE 6.9 mph - N/A   Clear
1:55 AM 55.4 °F 44.6 °F 67% 30.14 in 10.0 mi SE 3.5 mph - N/A   Clear
2:14 AM 55.4 °F 44.6 °F 67% 30.14 in 10.0 mi SE 4.6 mph - N/A   Clear
2:35 AM 53.6 °F 42.8 °F 67% 30.14 in 10.0 mi ESE 3.5 mph - N/A   Clear
2:55 AM 53.6 °F 42.8 °F 67% 30.15 in 10.0 mi ESE 3.5 mph - N/A   Clear
3:14 AM 53.6 °F 42.8 °F 67% 30.15 in 10.0 mi ESE 3.5 mph - N/A   Clear
3:35 AM 51.8 °F 42.8 °F 71% 30.15 in 10.0 mi ESE 3.5 mph - N/A   Clear
3:55 AM 51.8 °F 42.8 °F 71% 30.15 in 10.0 mi East 3.5 mph - N/A   Clear
4:14 AM 51.8 °F 42.8 °F 71% 30.16 in 10.0 mi East 3.5 mph - N/A   Clear
4:35 AM 51.8 °F 42.8 °F 71% 30.16 in 10.0 mi Calm Calm - N/A   Clear
4:55 AM 48.2 °F 42.8 °F 82% 30.16 in 10.0 mi Calm Calm - N/A   Clear
5:14 AM 48.2 °F 42.8 °F 82% 30.17 in 10.0 mi Calm Calm - N/A   Clear
5:35 AM 50.0 °F 44.6 °F 82% 30.17 in 10.0 mi Calm Calm - N/A   Clear
5:55 AM 46.4 °F 42.8 °F 87% 30.17 in 10.0 mi Calm Calm - N/A   Clear
6:14 AM 48.2 °F 44.6 °F 87% 30.18 in 10.0 mi Calm Calm - N/A   Clear
6:35 AM 46.4 °F 44.6 °F 93% 30.18 in 10.0 mi Calm Calm - N/A   Clear
6:55 AM 44.6 °F 42.8 °F 93% 30.19 in 10.0 mi Calm Calm - N/A   Clear
7:14 AM 44.6 °F 42.8 °F 93% 30.19 in 10.0 mi Calm Calm - N/A   Clear
7:35 AM 44.6 °F 42.8 °F 93% 30.20 in 10.0 mi Calm Calm - N/A   Clear
7:55 AM 46.4 °F 44.6 °F 93% 30.20 in 10.0 mi Calm Calm - N/A   Clear
8:14 AM 46.4 °F 44.6 °F 93% 30.21 in 10.0 mi Calm Calm - N/A   Clear
8:35 AM 48.2 °F 48.2 °F 100% 30.20 in 10.0 mi Calm Calm - N/A   Clear
8:55 AM 53.6 °F 51.8 °F 94% 30.20 in 10.0 mi Calm Calm - N/A   Clear
9:14 AM 57.2 °F 51.8 °F 82% 30.21 in 10.0 mi Calm Calm - N/A   Clear
9:35 AM 60.8 °F 53.6 °F 77% 30.21 in 5.0 mi SE 5.8 mph - N/A   Haze
9:55 AM 62.6 °F 55.4 °F 77% 30.22 in 10.0 mi SE 3.5 mph - N/A   Clear
10:14 AM 64.4 °F 55.4 °F 73% 30.21 in 10.0 mi SE 5.8 mph - N/A   Clear
10:35 AM 64.4 °F 55.4 °F 73% 30.21 in 10.0 mi ESE 3.5 mph - N/A   Clear
10:55 AM 66.2 °F 55.4 °F 68% 30.22 in 10.0 mi SE 6.9 mph - N/A   Clear
11:14 AM 69.8 °F 53.6 °F 56% 30.22 in 10.0 mi ESE 8.1 mph - N/A   Clear
11:35 AM 69.8 °F 51.8 °F 53% 30.21 in 10.0 mi East 11.5 mph - N/A   Clear
11:54 AM 71.6 °F 51.8 °F 50% 30.21 in 10.0 mi East 10.4 mph - N/A   Clear
12:15 PM 73.4 °F 51.8 °F 47% 30.20 in 10.0 mi East 6.9 mph - N/A   Clear
12:34 PM 73.4 °F 51.8 °F 47% 30.20 in 10.0 mi ESE 9.2 mph - N/A   Clear
12:54 PM 73.4 °F 51.8 °F 47% 30.20 in 10.0 mi ESE 3.5 mph - N/A   Clear
1:14 PM 75.2 °F 51.8 °F 44% 30.20 in 10.0 mi ESE 6.9 mph - N/A   Clear
1:35 PM 75.2 °F 50.0 °F 41% 30.19 in 10.0 mi ESE 5.8 mph - N/A   Clear
1:55 PM 75.2 °F 50.0 °F 41% 30.19 in 10.0 mi ESE 5.8 mph - N/A   Clear
2:14 PM 75.2 °F 51.8 °F 44% 30.18 in 10.0 mi East 9.2 mph - N/A   Clear
2:35 PM 77.0 °F 50.0 °F 39% 30.18 in 10.0 mi ESE 8.1 mph - N/A   Clear
2:54 PM 77.0 °F 50.0 °F 39% 30.17 in 10.0 mi ESE 6.9 mph - N/A   Clear
3:14 PM 78.8 °F 51.8 °F 39% 30.17 in 10.0 mi ESE 9.2 mph 17.3 mph N/A   Clear
3:35 PM 78.8 °F 50.0 °F 36% 30.16 in 10.0 mi East 10.4 mph - N/A   Clear
3:54 PM 78.8 °F 50.0 °F 36% 30.15 in 10.0 mi East 8.1 mph - N/A   Clear
4:14 PM 78.8 °F 50.0 °F 36% 30.15 in 10.0 mi SE 8.1 mph - N/A   Clear
4:35 PM 78.8 °F 51.8 °F 39% 30.14 in 10.0 mi ESE 6.9 mph - N/A   Clear
4:54 PM 78.8 °F 50.0 °F 36% 30.14 in 10.0 mi ESE 11.5 mph - N/A   Clear
5:14 PM 78.8 °F 51.8 °F 39% 30.13 in 10.0 mi ESE 10.4 mph - N/A   Clear
5:35 PM 77.0 °F 50.0 °F 39% 30.13 in 10.0 mi SE 10.4 mph - N/A   Clear
5:54 PM 77.0 °F 51.8 °F 41% 30.13 in 10.0 mi ESE 9.2 mph - N/A   Clear
6:15 PM 75.2 °F 51.8 °F 44% 30.13 in 10.0 mi SE 8.1 mph - N/A   Clear
6:35 PM 75.2 °F 51.8 °F 44% 30.14 in 10.0 mi ESE 8.1 mph - N/A   Clear
6:54 PM 73.4 °F 51.8 °F 47% 30.14 in 10.0 mi ESE 8.1 mph - N/A   Clear
7:15 PM 73.4 °F 51.8 °F 47% 30.13 in 10.0 mi ESE 8.1 mph - N/A   Clear
7:35 PM 69.8 °F 51.8 °F 53% 30.14 in 10.0 mi East 6.9 mph - N/A   Clear
7:54 PM 69.8 °F 51.8 °F 53% 30.14 in 10.0 mi East 6.9 mph - N/A   Clear
8:15 PM 66.2 °F 51.8 °F 60% 30.14 in 10.0 mi East 5.8 mph - N/A   Clear
8:35 PM 66.2 °F 50.0 °F 56% 30.15 in 10.0 mi ESE 8.1 mph - N/A   Clear
8:55 PM 64.4 °F 50.0 °F 59% 30.15 in 10.0 mi ESE 9.2 mph - N/A   Clear
9:14 PM 64.4 °F 51.8 °F 64% 30.16 in 10.0 mi ESE 8.1 mph - N/A   Clear
9:35 PM 62.6 °F 51.8 °F 68% 30.16 in 10.0 mi East 6.9 mph - N/A   Clear
9:55 PM 62.6 °F 51.8 °F 68% 30.17 in 10.0 mi ESE 5.8 mph - N/A   Clear
10:14 PM 60.8 °F 51.8 °F 72% 30.17 in 10.0 mi East 6.9 mph - N/A   Clear
10:35 PM 60.8 °F 51.8 °F 72% 30.16 in 10.0 mi East 10.4 mph - N/A   Clear
10:54 PM 60.8 °F 53.6 °F 77% 30.17 in 10.0 mi East 8.1 mph - N/A   Clear
11:15 PM 60.8 °F 53.6 °F 77% 30.17 in 10.0 mi ESE 6.9 mph - N/A   Clear
11:35 PM 60.8 °F 53.6 °F 77% 30.17 in 10.0 mi ESE 5.8 mph - N/A   Clear
11:54 PM 57.2 °F 53.6 °F 88% 30.17 in 10.0 mi ESE 4.6 mph - N/A   Clear